• In Kazakhstan
  • List of Countries
  • For 7 days
  • Water Temperature
  • Satellite Maps
  • Weather Map
  • News
  • Weather Widgets
  • user-avatar
    Login

    Hourly Weather Sacramento

    Today, 23 November, Thursday

    Time Temperature Precipitation Wind Pressure Humidity
    00:00 +16°C° 0 mm 0 mps 764 mmHg 77%
    01:00 +15°C° 0 mm 0 mps 764 mmHg 78%
    02:00 +15°C° 0 mm 0 mps 764 mmHg 78%
    03:00 +15°C° 0 mm 0 mps 764 mmHg 78%
    04:00 +16°C° 0 mm 1 mps 764 mmHg 79%
    05:00 +15°C° 0 mm 1 mps 764 mmHg 79%
    06:00 +15°C° 0 mm 1 mps 764 mmHg 79%
    07:00 +15°C° 0 mm 1 mps 764 mmHg 79%
    08:00 +18°C° 0 mm 1 mps 764 mmHg 73%
    09:00 +20°C° 0 mm 1 mps 765 mmHg 66%
    10:00 +21°C° 0 mm 1 mps 765 mmHg 60%
    11:00 +22°C° 0 mm 1 mps 764 mmHg 59%
    12:00 +22°C° 0 mm 1 mps 764 mmHg 58%
    13:00 +23°C° 0 mm 1 mps 764 mmHg 57%
    14:00 +22°C° 0.1 mm 1 mps 763 mmHg 61%
    15:00 +21°C° 0.1 mm 1 mps 763 mmHg 66%
    16:00 +21°C° 0.1 mm 1 mps 763 mmHg 70%
    17:00 +20°C° 0 mm 1 mps 763 mmHg 72%
    18:00 +19°C° 0 mm 1 mps 763 mmHg 73%
    19:00 +19°C° 0 mm 1 mps 763 mmHg 75%
    20:00 +19°C° 0 mm 1 mps 763 mmHg 78%
    21:00 +18°C° 0 mm 1 mps 764 mmHg 80%
    22:00 +18°C° 0 mm 1 mps 764 mmHg 83%
    23:00 +18°C° 0 mm 1 mps 763 mmHg 84%

    Tomorrow, 24 November, Friday

    Time Temperature Precipitation Wind Pressure Humidity
    00:00 +16°C° 0 mm 1 mps 763 mmHg 85%
    01:00 +16°C° 0 mm 1 mps 763 mmHg 86%
    02:00 +16°C° 0 mm 1 mps 763 mmHg 87%
    03:00 +15°C° 0 mm 1 mps 763 mmHg 88%
    04:00 +15°C° 0 mm 1 mps 763 mmHg 89%
    05:00 +15°C° 0 mm 1 mps 763 mmHg 89%
    06:00 +15°C° 0 mm 1 mps 763 mmHg 89%
    07:00 +15°C° 0 mm 1 mps 763 mmHg 88%
    08:00 +16°C° 0 mm 0 mps 763 mmHg 80%
    09:00 +17°C° 0 mm 0 mps 763 mmHg 72%
    10:00 +19°C° 0 mm 0 mps 763 mmHg 64%
    11:00 +22°C° 0 mm 1 mps 763 mmHg 60%
    12:00 +23°C° 0 mm 1 mps 762 mmHg 56%
    13:00 +24°C° 0 mm 1 mps 762 mmHg 52%
    14:00 +24°C° 0 mm 1 mps 761 mmHg 54%
    15:00 +23°C° 0 mm 1 mps 761 mmHg 56%
    16:00 +23°C° 0 mm 1 mps 760 mmHg 59%
    17:00 +22°C° 0 mm 1 mps 761 mmHg 62%
    18:00 +21°C° 0 mm 1 mps 761 mmHg 65%
    19:00 +20°C° 0 mm 1 mps 761 mmHg 68%
    20:00 +20°C° 0 mm 1 mps 761 mmHg 67%
    21:00 +19°C° 0 mm 1 mps 761 mmHg 66%
    22:00 +19°C° 0 mm 1 mps 761 mmHg 66%
    23:00 +19°C° 0 mm 1 mps 760 mmHg 67%

    Day after tomorrow, 25 November, Saturday

    Time Temperature Precipitation Wind Pressure Humidity
    00:00 +18°C° 0 mm 1 mps 760 mmHg 68%
    01:00 +18°C° 0 mm 1 mps 760 mmHg 69%
    02:00 +16°C° 0 mm 1 mps 759 mmHg 70%
    03:00 +16°C° 0 mm 1 mps 759 mmHg 71%
    04:00 +15°C° 0 mm 1 mps 759 mmHg 72%
    05:00 +15°C° 0 mm 1 mps 759 mmHg 71%
    06:00 +15°C° 0 mm 1 mps 759 mmHg 71%
    07:00 +15°C° 0 mm 1 mps 759 mmHg 70%
    08:00 +16°C° 0 mm 1 mps 759 mmHg 66%
    09:00 +19°C° 0 mm 1 mps 759 mmHg 61%
    10:00 +19°C° 0 mm 2 mps 759 mmHg 56%
    11:00 +21°C° 0 mm 2 mps 759 mmHg 53%
    12:00 +22°C° 0 mm 3 mps 759 mmHg 49%
    13:00 +25°C° 0 mm 3 mps 758 mmHg 45%
    14:00 +24°C° 0 mm 2 mps 758 mmHg 48%
    15:00 +23°C° 0 mm 2 mps 758 mmHg 51%
    16:00 +22°C° 0 mm 1 mps 758 mmHg 54%
    17:00 +22°C° 0 mm 1 mps 758 mmHg 54%
    18:00 +20°C° 0 mm 2 mps 758 mmHg 55%
    19:00 +20°C° 0 mm 2 mps 759 mmHg 56%
    20:00 +20°C° 0.1 mm 2 mps 759 mmHg 57%
    21:00 +20°C° 0.1 mm 2 mps 759 mmHg 58%
    22:00 +19°C° 0.1 mm 3 mps 759 mmHg 59%
    23:00 +19°C° 0.3 mm 3 mps 759 mmHg 62%

    26 November, Sunday

    Time Temperature Precipitation Wind Pressure Humidity
    00:00 +19°C° 0.3 mm 4 mps 759 mmHg 64%
    01:00 +19°C° 0.3 mm 4 mps 759 mmHg 67%
    02:00 +18°C° 1.2 mm 4 mps 759 mmHg 70%
    03:00 +17°C° 1.2 mm 5 mps 759 mmHg 74%
    04:00 +17°C° 1.2 mm 5 mps 759 mmHg 78%
    05:00 +17°C° 0.4 mm 4 mps 760 mmHg 78%
    06:00 +17°C° 0.4 mm 4 mps 760 mmHg 79%
    07:00 +17°C° 0.4 mm 3 mps 760 mmHg 80%
    08:00 +17°C° 0.2 mm 4 mps 760 mmHg 78%
    09:00 +17°C° 0.2 mm 4 mps 761 mmHg 76%
    10:00 +17°C° 0.2 mm 4 mps 761 mmHg 73%
    11:00 +18°C° 0.2 mm 4 mps 761 mmHg 70%
    12:00 +17°C° 0.2 mm 5 mps 760 mmHg 68%
    13:00 +17°C° 0.2 mm 5 mps 760 mmHg 65%
    14:00 +16°C° 0.1 mm 5 mps 760 mmHg 63%
    15:00 +16°C° 0.1 mm 5 mps 760 mmHg 61%
    16:00 +15°C° 0.1 mm 5 mps 760 mmHg 58%
    17:00 +14°C° 0.6 mm 5 mps 761 mmHg 63%
    18:00 +13°C° 0.6 mm 5 mps 761 mmHg 67%
    19:00 +12°C° 0.6 mm 5 mps 762 mmHg 72%
    20:00 +11°C° 0.5 mm 4 mps 763 mmHg 72%
    21:00 +11°C° 0.5 mm 3 mps 764 mmHg 71%
    22:00 +10°C° 0.5 mm 2 mps 765 mmHg 71%
    23:00 +10°C° 0 mm 2 mps 766 mmHg 73%

    27 November, Monday

    Time Temperature Precipitation Wind Pressure Humidity
    00:00 +9°C° 0 mm 2 mps 766 mmHg 74%
    01:00 +9°C° 0 mm 2 mps 767 mmHg 76%
    02:00 +9°C° 0 mm 2 mps 767 mmHg 75%
    03:00 +9°C° 0 mm 2 mps 768 mmHg 75%
    04:00 +9°C° 0 mm 2 mps 768 mmHg 74%
    05:00 +8°C° 0 mm 2 mps 768 mmHg 74%
    06:00 +8°C° 0 mm 2 mps 769 mmHg 74%
    07:00 +8°C° 0 mm 2 mps 769 mmHg 74%
    08:00 +10°C° 0 mm 1 mps 769 mmHg 67%
    09:00 +12°C° 0 mm 1 mps 769 mmHg 60%
    10:00 +14°C° 0 mm 1 mps 769 mmHg 54%
    11:00 +14°C° 0 mm 2 mps 768 mmHg 52%
    12:00 +14°C° 0 mm 3 mps 768 mmHg 51%
    13:00 +15°C° 0 mm 5 mps 767 mmHg 49%
    14:00 +14°C° 0 mm 5 mps 767 mmHg 51%
    15:00 +14°C° 0 mm 5 mps 767 mmHg 52%
    16:00 +14°C° 0 mm 6 mps 766 mmHg 54%
    17:00 +13°C° 0 mm 6 mps 767 mmHg 56%
    18:00 +11°C° 0 mm 6 mps 767 mmHg 58%
    19:00 +10°C° 0 mm 6 mps 767 mmHg 60%
    20:00 +10°C° 0 mm 5 mps 768 mmHg 58%
    21:00 +10°C° 0 mm 5 mps 768 mmHg 57%
    22:00 +10°C° 0 mm 5 mps 768 mmHg 56%
    23:00 +10°C° 0 mm 5 mps 768 mmHg 55%

    28 November, Tuesday

    Time Temperature Precipitation Wind Pressure Humidity
    00:00 +9°C° 0 mm 5 mps 767 mmHg 54%
    01:00 +10°C° 0 mm 4 mps 767 mmHg 53%
    02:00 +10°C° 0 mm 4 mps 767 mmHg 53%
    03:00 +10°C° 0 mm 3 mps 767 mmHg 53%
    04:00 +9°C° 0 mm 3 mps 767 mmHg 53%
    05:00 +9°C° 0 mm 3 mps 767 mmHg 53%
    06:00 +9°C° 0 mm 2 mps 767 mmHg 54%
    07:00 +8°C° 0 mm 2 mps 767 mmHg 55%
    08:00 +10°C° 0 mm 2 mps 767 mmHg 51%
    09:00 +13°C° 0 mm 2 mps 767 mmHg 46%
    10:00 +15°C° 0 mm 2 mps 767 mmHg 42%
    11:00 +16°C° 0 mm 2 mps 767 mmHg 40%
    12:00 +17°C° 0 mm 2 mps 766 mmHg 37%
    13:00 +19°C° 0 mm 2 mps 766 mmHg 35%
    14:00 +18°C° 0 mm 2 mps 766 mmHg 38%
    15:00 +18°C° 0 mm 2 mps 766 mmHg 41%
    16:00 +17°C° 0 mm 2 mps 765 mmHg 44%
    17:00 +16°C° 0 mm 2 mps 766 mmHg 47%
    18:00 +15°C° 0 mm 2 mps 766 mmHg 49%
    19:00 +14°C° 0 mm 2 mps 767 mmHg 52%
    20:00 +13°C° 0 mm 1 mps 767 mmHg 53%
    21:00 +13°C° 0 mm 1 mps 767 mmHg 54%
    22:00 +13°C° 0 mm 1 mps 767 mmHg 55%
    23:00 +12°C° 0 mm 1 mps 767 mmHg 56%
    Show more